Date,TemperatureHighF,TemperatureAvgF,TemperatureLowF,DewpointHighF,DewpointAvgF,DewpointLowF,HumidityHigh,HumidityAvg,HumidityLow,PressureMaxIn,PressureMinIn,WindSpeedMaxMPH,WindSpeedAvgMPH,GustSpeedMaxMPH,PrecipitationSumIn
2013-1-1,31,23,12,19,12,2,72,64,49,30.21,30.03,4,0,4,0.00
2013-1-2,27,18,7,19,10,0,78,72,68,30.25,30.09,2,0,2,0.00
2013-1-3,29,22,14,22,14,5,76,72,68,30.21,30.10,5,0,5,0.00
2013-1-4,34,27,22,22,18,15,76,69,55,30.22,30.08,6,2,6,0.00
2013-1-5,33,25,14,26,18,7,78,74,65,30.33,30.05,4,0,4,0.00
2013-1-6,36,33,32,29,26,24,78,76,72,30.31,29.94,4,1,4,0.00
2013-1-7,37,32,28,28,23,20,74,70,60,30.45,30.18,5,1,5,0.00
2013-1-8,37,28,21,30,20,14,77,73,66,30.30,30.19,3,0,3,0.00
2013-1-9,48,36,21,35,25,14,78,65,45,30.52,30.08,6,1,6,0.00
2013-1-10,39,33,23,28,25,16,77,71,62,30.65,30.21,6,2,6,0.03
2013-1-11,57,43,34,49,36,28,80,77,71,30.22,29.79,5,1,5,0.49
2013-1-12,59,48,40,50,42,34,81,79,70,29.99,29.85,3,0,3,0.02
2013-1-13,50,39,31,44,34,26,83,82,80,30.08,29.71,5,1,5,0.74
2013-1-14,31,25,19,26,19,13,83,76,72,30.50,30.08,6,1,6,0.00
2013-1-15,31,23,14,23,16,8,80,74,67,30.49,30.16,3,0,3,0.00
2013-1-16,40,30,21,25,19,15,80,66,44,30.17,29.83,5,1,5,0.00
2013-1-17,42,31,20,28,20,6,74,62,47,30.35,29.97,6,1,6,0.00
2013-1-18,34,26,17,21,14,7,65,60,51,30.49,30.01,7,1,7,0.00
2013-1-19,49,40,33,33,27,21,68,61,50,30.01,29.60,7,2,7,0.00
2013-1-20,43,41,37,34,27,18,70,57,46,29.67,29.58,10,4,10,0.00
2013-1-22,9,8,8,-1,-1,-2,66,65,64,30.30,30.28,3,0,3,0.00
2013-1-23,20,12,6,8,3,-3,70,65,59,30.30,30.09,3,0,3,0.00
2013-1-24,27,15,8,10,4,-1,74,63,44,30.65,30.12,6,1,6,0.00
2013-1-25,23,18,14,15,10,2,77,71,60,30.54,30.03,4,1,4,0.00
2013-1-26,28,22,18,18,14,10,77,71,61,30.50,30.05,3,0,3,0.00
2013-1-27,29,21,11,24,13,4,81,72,59,30.53,30.12,8,1,8,0.00
2013-1-28,43,37,29,38,32,24,83,82,81,30.16,29.88,5,0,5,0.26
2013-1-29,55,45,35,47,39,30,83,79,73,30.04,29.47,7,1,7,0.23
2013-1-30,60,49,32,54,43,26,82,80,73,29.47,29.11,10,1,10,0.31
2013-1-31,32,23,17,26,16,11,78,73,68,29.88,29.24,8,2,10,0.00
2013-2-1,22,15,10,14,8,1,78,72,65,30.32,29.88,5,1,5,0.00
2013-2-2,25,17,11,18,11,5,81,75,71,30.24,29.94,3,0,3,0.00
2013-2-3,24,15,4,16,8,-2,80,73,68,30.02,29.84,5,1,5,0.00
2013-2-4,28,21,17,23,15,10,84,77,71,30.02,29.87,2,0,2,0.00
2013-2-5,28,23,16,22,16,10,80,76,67,29.96,29.81,5,0,5,0.00
2013-2-6,35,25,11,25,16,4,81,68,54,30.34,29.96,5,0,5,0.06
2013-2-7,40,30,24,29,22,15,77,71,62,30.31,29.84,7,2,7,0.02
2013-2-8,31,27,18,25,20,10,81,75,66,30.38,29.76,7,1,7,0.00
2013-2-9,35,23,11,28,14,5,84,71,54,30.50,30.38,4,1,4,0.02
2013-2-11,34,32,31,25,24,23,71,70,69,29.89,29.79,8,3,8,0.00
2013-2-12,33,31,28,23,22,19,73,69,66,30.08,29.89,5,1,5,0.00
2013-2-13,31,28,27,23,21,19,77,72,70,29.93,29.78,2,0,2,0.00
2013-2-14,39,33,26,32,27,20,82,77,68,29.85,29.69,7,1,7,0.00
2013-2-15,34,28,22,26,16,11,73,61,50,30.15,29.85,6,1,6,0.00
2013-2-16,26,21,16,17,12,8,75,67,52,30.12,29.99,4,0,4,0.00
2013-2-17,26,18,11,10,6,3,77,61,44,30.24,30.05,5,1,5,0.00
2013-2-18,45,32,16,34,19,5,68,60,48,30.22,29.59,12,2,12,0.00
2013-2-19,45,28,18,37,21,10,81,74,65,29.94,29.38,7,2,9,0.10
2013-2-20,22,20,16,13,10,5,73,65,58,30.25,29.93,7,2,7,0.00
2013-2-21,27,23,21,16,14,12,75,69,60,30.40,30.24,9,2,9,0.00
2013-2-22,33,27,22,28,22,15,83,80,75,30.25,29.86,12,3,12,0.00
2013-2-23,33,30,25,28,21,16,83,68,58,29.91,29.85,5,1,5,0.05
2013-2-24,37,29,22,24,20,15,76,70,57,30.18,29.88,5,1,5,0.02
2013-2-25,41,30,19,27,20,12,79,67,54,30.25,30.11,5,1,6,0.00
2013-2-26,34,31,28,28,24,19,83,76,66,30.13,29.45,12,2,12,0.10
2013-2-27,35,33,33,30,29,28,84,83,82,29.57,29.38,3,0,3,0.33
2013-2-28,36,33,30,30,28,24,83,80,73,29.96,29.52,4,1,6,0.50
2013-3-1,30,27,25,24,20,18,77,75,72,30.12,29.95,5,1,5,0.00
2013-3-2,26,24,23,18,17,15,77,73,69,30.10,30.05,5,1,5,0.00
2013-3-3,31,24,18,15,13,9,75,65,49,30.07,30.01,7,1,7,0.01
2013-3-4,36,24,15,19,14,7,75,65,48,30.17,30.05,3,0,3,0.10
2013-3-5,36,28,21,24,19,14,78,70,59,30.13,29.82,9,3,10,0.06
2013-3-6,39,32,26,28,24,20,77,71,63,30.23,29.81,4,1,6,0.14
2013-3-7,36,33,29,27,24,20,78,70,60,30.44,30.21,5,1,5,0.01
2013-3-8,44,33,22,28,22,15,74,65,52,30.54,30.42,5,0,5,0.00
2013-3-9,44,34,25,30,25,18,79,69,58,30.45,30.04,8,1,8,0.00
2013-3-10,61,48,34,44,35,27,78,63,50,30.04,29.80,5,1,7,0.00
2013-3-11,54,48,37,45,41,30,82,75,56,29.83,29.45,8,2,8,0.17
2013-3-12,37,34,30,30,27,24,80,76,69,29.94,29.68,6,1,6,0.01
2013-3-13,32,29,25,25,19,13,80,67,53,30.21,29.83,7,2,7,0.00
2013-3-14,42,31,21,22,17,12,72,57,41,30.29,30.09,5,1,5,0.00
2013-3-15,40,35,30,31,26,18,80,71,59,30.09,29.83,4,1,4,0.05
2013-3-16,34,30,28,28,24,21,82,78,71,30.04,29.72,5,1,5,0.03
2013-3-17,34,28,22,22,17,14,75,65,51,30.28,30.04,6,2,8,0.03
2013-3-18,34,30,23,30,24,15,84,79,68,30.19,29.52,12,3,12,0.02
2013-3-19,34,27,23,29,18,13,82,68,59,29.94,29.57,9,2,9,0.00
2013-3-20,29,25,18,17,13,8,70,61,51,29.96,29.87,6,2,6,0.00
2013-3-21,32,24,15,21,15,8,77,71,61,29.93,29.83,6,1,6,0.00
2013-3-22,41,31,26,23,19,15,71,60,45,30.04,29.91,5,1,5,0.00
2013-3-23,38,31,24,24,20,16,76,65,54,30.12,30.00,5,0,5,0.00
2013-3-24,37,31,26,25,21,18,76,66,50,30.05,29.58,9,2,9,0.00
2013-3-25,40,34,31,26,24,21,73,66,54,29.90,29.50,9,2,9,0.00
2013-3-26,44,36,33,29,26,22,74,66,49,30.13,29.90,6,2,6,0.00
2013-3-27,47,38,30,28,25,22,76,60,43,30.23,30.12,7,2,7,0.00
2013-3-28,54,41,30,30,24,20,70,53,38,30.30,30.22,7,1,7,0.01
2013-3-29,55,42,30,27,22,18,62,48,30,30.32,30.23,5,1,5,0.00
2013-3-30,58,43,27,29,23,16,68,47,27,30.25,29.92,5,1,5,0.00
2013-3-31,60,46,35,41,31,24,78,58,36,29.93,29.59,7,1,7,0.05
2013-4-1,43,34,27,29,16,11,67,48,33,30.08,29.66,8,2,8,0.00
2013-4-2,44,31,23,16,13,9,68,47,30,30.24,30.07,6,1,6,0.00
2013-4-3,44,33,24,17,14,11,62,45,30,30.43,30.23,7,1,7,0.00
2013-4-4,57,39,22,22,17,10,63,43,24,30.37,29.92,5,1,5,0.00
2013-4-5,50,43,36,27,22,17,65,44,28,30.20,29.90,7,1,7,0.00
2013-4-6,53,40,31,30,23,17,60,50,34,30.24,29.79,12,3,12,0.00
2013-4-7,56,53,43,43,35,27,63,52,39,30.04,29.60,8,2,8,0.00
2013-4-8,65,46,36,54,37,26,81,70,56,30.06,29.69,8,2,8,0.04
2013-4-9,55,48,43,45,41,37,82,76,69,30.11,29.88,6,2,8,0.01
2013-4-10,48,44,40,42,39,35,85,83,79,29.99,29.84,7,2,7,0.28
2013-4-11,40,38,36,36,34,33,87,86,84,29.97,29.60,12,4,13,0.97
2013-4-12,41,38,36,37,34,32,87,83,74,29.75,29.47,10,1,10,0.27
2013-4-13,41,38,36,35,30,26,84,73,61,29.99,29.77,6,1,6,0.01
2013-4-14,48,40,32,36,31,26,80,70,58,30.13,29.98,9,2,9,0.00
2013-4-15,67,52,37,52,42,30,80,70,57,29.98,29.88,6,1,6,0.00
2013-4-16,60,52,48,51,42,34,84,70,43,30.25,29.89,4,1,4,0.34
2013-4-18,76,64,58,64,58,54,87,81,64,29.72,29.57,14,2,14,0.42
2013-4-19,58,45,36,54,38,28,87,77,65,29.75,29.31,8,2,10,0.14
2013-4-20,41,35,31,29,22,17,79,58,45,30.47,29.74,6,2,6,0.01
2013-4-21,48,37,26,30,23,18,77,57,43,30.66,30.47,8,2,8,0.00
2013-4-22,62,47,32,37,30,23,80,54,27,30.51,30.22,9,1,9,0.00
2013-4-23,70,54,38,51,39,28,84,59,41,30.22,29.80,7,1,7,0.19
2013-4-24,55,40,35,51,36,27,88,83,68,30.15,29.72,6,1,6,0.51
2013-4-25,51,40,31,40,30,26,85,71,45,30.38,30.11,6,1,6,0.11
2013-4-26,59,45,30,38,32,24,82,62,43,30.50,30.38,6,1,6,0.00
2013-4-27,69,53,36,42,36,29,83,56,30,30.40,30.14,6,1,6,0.00
2013-4-28,54,52,49,50,44,34,88,75,54,30.14,29.84,5,1,5,0.05
2013-4-29,69,59,52,55,52,48,88,77,58,29.97,29.83,4,1,4,0.02
2013-4-30,72,61,51,56,52,46,86,73,56,30.11,29.96,10,1,10,0.00
2013-5-1,81,66,49,60,52,43,86,64,42,30.30,30.10,7,1,7,0.00
2013-5-2,79,66,53,56,50,44,76,57,39,30.29,30.18,8,2,8,0.00
2013-5-3,77,66,56,58,46,35,66,50,26,30.18,30.10,8,2,8,0.00
2013-5-4,71,63,55,47,42,37,70,48,32,30.16,30.09,9,2,9,0.00
2013-5-5,73,62,54,46,40,35,64,45,26,30.14,30.07,8,2,8,0.00
2013-5-6,75,62,50,52,43,36,64,50,41,30.09,30.01,6,1,6,0.00
2013-5-7,78,64,52,55,48,39,69,56,40,30.09,30.03,8,1,8,0.00
2013-5-8,82,65,54,55,49,44,70,57,35,30.08,29.98,5,1,5,0.00
2013-5-9,80,67,52,55,50,44,81,57,34,30.01,29.93,4,0,4,0.00
2013-5-10,71,60,44,60,52,38,86,75,56,29.97,29.78,5,1,5,0.14
2013-5-11,62,48,40,47,40,31,84,75,52,29.92,29.75,6,1,6,0.02
2013-5-12,49,42,36,32,28,24,78,60,44,30.11,29.87,6,1,6,0.00
2013-5-13,56,44,31,29,25,22,75,51,29,30.19,30.09,5,1,5,0.00
2013-5-14,79,59,42,54,41,28,64,52,39,30.13,29.75,5,1,5,0.00
2013-5-15,84,72,56,57,49,44,79,48,29,29.83,29.60,6,1,6,0.00
2013-5-16,84,69,51,51,44,38,69,43,25,30.06,29.81,4,1,4,0.00
2013-5-17,76,64,52,49,42,36,64,46,32,30.19,30.06,8,1,8,0.00
2013-5-18,82,67,56,55,46,36,60,47,32,30.19,30.09,5,1,5,0.00
2013-5-19,86,70,55,64,54,42,70,57,42,30.09,29.94,4,1,4,0.00
2013-5-20,90,76,61,69,61,54,84,62,41,29.97,29.83,5,1,5,0.00
2013-5-21,85,76,68,66,61,57,80,61,43,29.87,29.75,5,1,5,0.20
2013-5-22,80,67,62,65,60,56,85,78,50,29.79,29.68,7,1,7,0.12
2013-5-23,64,55,45,58,50,40,86,84,76,30.18,29.72,6,1,6,0.10
2013-5-24,56,48,41,40,37,34,86,68,49,30.39,30.18,5,1,5,0.00
2013-5-25,67,53,38,42,37,31,81,57,37,30.45,30.33,6,1,6,0.00
2013-5-26,59,46,40,40,35,31,78,66,44,30.40,30.33,2,0,2,0.00
2013-5-27,58,52,47,48,40,34,88,63,50,30.32,30.02,4,0,4,0.26
2013-5-28,76,63,52,69,58,48,88,84,75,30.02,29.85,4,1,4,0.09
2013-5-29,83,74,66,66,64,60,84,70,50,30.04,29.81,4,1,4,0.01
2013-5-30,87,74,62,70,64,56,86,72,52,30.12,30.01,4,1,4,0.04
2013-5-31,80,71,66,68,65,61,86,81,63,30.05,29.91,5,1,5,0.26
2013-6-1,78,70,63,67,63,59,88,79,65,29.90,29.72,5,1,5,0.20
2013-6-2,71,65,55,62,56,45,85,73,62,30.03,29.69,4,1,4,0.00
2013-6-3,68,58,46,45,42,38,75,58,41,30.13,30.02,6,1,6,0.00
2013-6-4,73,61,49,50,46,40,76,58,41,30.23,30.13,3,1,3,0.00
2013-6-5,74,63,53,51,44,37,63,50,40,30.22,30.04,3,1,3,0.00
2013-6-6,72,62,56,55,48,41,65,60,54,30.04,29.88,3,1,3,0.00
2013-6-7,62,57,53,52,49,46,80,74,65,29.93,29.89,3,1,3,0.00
2013-6-8,73,64,57,55,52,50,79,67,51,30.13,29.93,4,0,4,0.00
2013-6-9,76,67,59,61,55,51,80,67,51,30.15,29.98,5,1,5,0.00
2013-6-10,69,65,61,64,60,54,86,83,63,29.99,29.77,2,0,2,1.62
2013-6-11,80,72,64,66,63,59,86,75,59,29.95,29.79,2,0,2,0.00
2013-6-12,77,70,63,68,63,56,84,79,72,29.98,29.67,2,0,2,0.07
2013-6-13,76,68,61,63,58,55,87,73,50,29.96,29.52,5,1,5,2.20
2013-6-14,77,67,59,58,55,52,83,66,44,30.13,29.96,4,0,4,0.00
2013-6-15,79,67,55,62,56,48,83,70,52,30.13,29.97,3,0,3,0.01
2013-6-16,81,71,64,67,61,53,85,71,48,29.97,29.80,4,0,4,0.45
2013-6-17,86,72,57,64,58,51,81,62,40,29.97,29.88,3,0,3,0.00
2013-6-18,73,66,59,58,52,42,80,63,44,30.12,29.92,5,1,5,0.01
2013-6-19,76,64,52,54,48,39,67,56,43,30.22,30.11,5,0,5,0.00
2013-6-20,82,67,53,58,52,46,79,61,41,30.27,30.19,3,0,3,0.00
2013-6-21,87,74,60,65,58,52,80,60,42,30.26,30.10,4,0,4,0.00
2013-6-22,86,74,66,73,64,56,77,71,63,30.15,30.05,3,0,3,0.00
2013-6-23,90,78,68,71,66,62,82,67,50,30.13,30.03,6,1,6,0.00
2013-6-24,88,78,68,71,66,60,80,67,55,30.12,29.97,4,0,4,0.00
2013-6-25,83,74,68,73,66,61,82,76,66,30.07,29.87,4,0,4,0.68
2013-6-26,80,72,66,71,65,61,83,79,67,29.96,29.77,3,0,3,0.77
2013-6-27,80,71,66,65,59,50,82,67,57,29.85,29.70,0,0,0,1.60
2013-6-28,73,66,62,50,42,36,47,42,38,29.61,29.53,0,0,0,1.47
2013-6-29,71,66,62,36,20,6,38,16,1,29.76,29.55,0,0,0,0.16
2013-6-30,78,68,61,45,14,4,32,6,1,29.98,29.75,0,0,0,0.00
2013-7-1,67,63,60,18,6,3,18,3,1,30.11,29.97,0,0,0,0.26
2013-7-2,73,66,60,13,8,4,1,1,1,30.12,30.04,2,0,2,0.21
2013-7-3,81,71,62,20,12,5,1,1,1,30.15,30.07,3,0,3,0.00
2013-7-4,79,73,68,18,14,9,1,1,1,30.20,30.12,4,0,4,0.00
2013-7-5,83,74,69,21,14,10,1,1,1,30.17,30.11,4,0,4,0.03
2013-7-6,83,73,67,21,14,8,1,1,1,30.17,30.05,3,0,3,0.20
2013-7-7,81,72,68,19,13,10,1,1,1,30.10,30.03,3,0,3,0.38
2013-7-8,82,73,67,20,13,8,1,1,1,30.09,30.02,0,0,0,0.03
2013-7-9,87,76,71,24,16,12,1,1,1,30.04,29.92,0,0,0,0.42
2013-7-10,85,76,69,22,15,10,1,1,1,29.98,29.83,0,0,0,0.16
2013-7-11,68,66,65,10,8,7,1,1,1,30.01,29.98,0,0,0,0.00
2013-7-12,69,69,69,10,10,10,1,1,1,30.19,30.19,0,0,0,0.00
2013-7-13,84,74,64,21,14,6,1,1,1,30.31,30.19,0,0,0,0.00
2013-7-14,89,78,68,25,17,9,1,1,1,30.37,30.29,0,0,0,0.00
2013-7-15,91,81,72,27,19,13,1,1,1,30.40,30.33,0,0,0,0.24
2013-7-16,91,83,75,27,21,15,1,1,1,30.43,30.35,0,0,0,0.03
2013-7-17,91,83,74,27,21,14,1,1,1,30.41,30.27,0,0,0,0.00
2013-7-18,94,84,74,29,22,14,1,1,1,30.29,30.08,0,0,0,0.00
2013-7-19,92,84,77,28,22,16,1,1,1,30.09,29.84,0,0,0,0.00
2013-7-20,84,78,72,50,19,12,31,4,1,30.03,29.82,0,0,0,0.34
2013-7-21,84,74,65,49,16,7,30,4,1,30.10,30.01,0,0,0,0.00
2013-7-22,80,75,70,19,15,11,1,1,1,30.02,29.81,0,0,0,0.04
2013-7-23,87,73,63,24,13,5,1,1,1,29.92,29.71,0,0,0,0.04
2013-7-24,74,65,58,41,13,2,32,8,1,30.09,29.92,0,0,0,0.00
2013-7-25,78,65,54,52,16,-23,40,11,1,30.16,29.91,0,0,0,0.02
2013-7-26,80,69,58,53,19,2,40,11,1,29.93,29.73,0,0,0,0.02
2013-7-27,75,67,58,15,9,2,1,1,1,29.74,29.54,0,0,0,0.43
2013-7-28,66,59,53,8,3,-2,1,1,1,29.79,29.63,0,0,0,0.00
2013-8-7,90,77,72,74,69,67,84,78,60,29.71,29.66,2,0,2,0.00
2013-8-8,72,69,66,67,64,61,86,84,82,29.78,29.70,4,1,4,0.00
2013-8-9,81,81,81,58,58,58,46,46,46,29.78,29.78,0,0,0,0.00
2013-8-10,77,70,64,63,60,56,80,70,56,29.96,29.83,4,0,4,0.00
2013-8-11,80,70,58,63,58,52,86,67,47,29.96,29.87,3,0,3,0.00
2013-8-12,72,67,64,68,62,57,94,85,66,29.90,29.66,4,0,4,0.00
2013-8-13,66,62,56,63,54,46,93,76,56,29.87,29.63,4,1,4,0.00
2013-8-14,64,54,50,53,47,44,84,77,68,29.97,29.87,4,1,4,0.00
2013-8-25,87,72,58,66,60,52,86,66,46,30.15,30.02,5,0,5,0.00
2013-8-26,88,76,64,72,66,57,84,71,57,30.05,29.85,4,1,4,0.00
2013-8-27,82,75,70,76,71,66,94,87,80,29.87,29.70,4,0,4,0.00
2013-8-28,80,76,72,74,72,68,95,87,77,29.87,29.63,4,0,5,0.00
2013-8-29,86,75,67,74,69,64,91,81,64,29.94,29.86,4,0,4,0.00
2013-8-30,86,76,64,72,68,60,94,77,58,29.88,29.61,5,1,5,0.00
2013-8-31,80,74,70,72,69,65,91,83,69,29.71,29.59,4,0,4,0.00
2013-9-1,80,73,68,72,68,64,90,83,75,29.65,29.54,3,0,4,0.00
2013-9-2,78,70,62,68,62,51,89,75,56,29.73,29.52,5,1,5,0.06
2013-9-3,74,64,58,57,54,50,77,68,52,29.84,29.72,4,1,4,0.00
2013-9-4,80,68,54,62,57,49,88,69,51,29.89,29.83,4,1,4,0.00
2013-9-5,72,65,56,60,52,47,80,64,45,30.08,29.89,6,1,6,0.00
2013-9-6,76,63,50,54,49,43,83,62,43,30.09,29.89,3,0,3,0.00
2013-9-7,82,67,56,68,59,49,82,76,61,29.89,29.71,3,0,3,0.03
2013-9-8,76,70,61,65,60,51,85,72,54,29.92,29.73,9,1,9,0.00
2013-9-9,77,65,58,71,60,49,94,83,67,29.89,29.71,3,0,3,0.38
2013-9-10,92,79,68,76,70,65,94,76,48,29.85,29.70,4,0,4,0.00
2013-9-11,90,77,68,74,68,63,89,75,55,29.87,29.73,5,0,5,0.12
2013-9-12,78,69,59,66,60,48,92,75,48,29.77,29.66,4,1,4,0.00
2013-9-13,61,56,48,48,45,40,77,68,55,29.94,29.77,5,1,5,0.00
2013-9-14,56,45,42,45,39,36,84,77,68,30.00,29.93,2,0,2,0.00
2013-9-15,63,59,57,53,53,52,86,81,68,29.93,29.85,2,0,2,0.05
2013-9-16,63,57,51,53,50,42,89,77,60,30.19,29.92,5,1,5,0.01
2013-9-17,69,55,42,54,44,36,86,68,45,30.21,30.03,4,0,4,0.00
2013-9-18,76,61,50,59,51,43,86,70,49,30.03,29.85,3,0,3,0.00
2013-9-19,80,67,58,68,61,53,91,80,67,29.86,29.73,4,1,4,0.00
2013-9-20,79,71,66,72,67,64,95,88,71,29.73,29.53,4,1,4,0.70
2013-9-21,67,62,57,64,55,48,93,78,54,29.66,29.47,4,1,4,0.04
2013-9-22,60,54,47,48,44,40,76,67,57,29.88,29.66,5,1,5,0.00
2013-9-23,62,53,45,48,44,39,84,72,56,29.99,29.87,6,1,6,0.00
2013-9-24,68,55,45,54,47,40,87,74,57,29.95,29.80,5,0,5,0.00
2013-9-25,71,59,50,57,50,45,86,73,57,29.80,29.75,5,1,5,0.00
2013-9-26,76,62,50,55,50,44,86,67,42,29.96,29.79,5,0,5,0.00
2013-9-27,76,62,50,60,52,44,88,71,52,30.05,29.95,5,1,5,0.00
2013-9-28,78,64,53,62,54,47,92,72,47,30.01,29.82,4,0,4,0.00
2013-9-29,63,60,56,60,56,51,91,86,77,29.84,29.76,2,0,2,0.14
2013-9-30,71,62,56,59,56,50,93,80,59,29.81,29.74,5,0,5,0.00
2013-10-1,68,59,50,63,54,46,95,85,79,29.82,29.74,5,0,5,0.02
2013-10-2,78,66,56,59,55,51,94,71,40,29.89,29.75,4,0,4,0.00
2013-10-3,66,59,57,62,52,50,85,79,74,29.87,29.82,2,0,2,0.00
2013-10-4,78,73,67,68,65,62,84,77,67,29.85,29.81,3,0,3,0.00
2013-10-5,73,68,65,68,65,62,95,89,83,29.84,29.66,4,0,4,0.20
2013-10-6,69,65,56,67,62,54,96,92,84,29.66,29.42,6,1,6,0.39
2013-10-7,59,52,45,54,47,42,92,83,68,29.92,29.47,7,1,7,0.00
2013-10-8,68,53,41,52,44,37,92,73,47,30.09,29.92,4,0,4,0.01
2013-10-9,70,56,44,56,46,40,90,70,45,30.12,30.03,5,1,5,0.00
2013-10-10,72,57,46,54,46,41,90,68,41,30.04,29.94,4,0,4,0.10
2013-10-11,73,57,44,55,47,38,87,70,51,29.94,29.88,4,0,4,0.00
2013-10-12,78,62,50,60,52,45,91,70,41,29.90,29.84,5,0,5,0.00
2013-10-13,68,60,50,56,47,40,88,65,39,30.15,29.89,4,1,4,0.00
2013-10-14,64,54,48,46,43,40,81,67,49,30.22,30.07,6,1,6,0.00
2013-10-15,63,54,44,59,49,38,92,83,74,30.08,29.63,4,1,4,0.01
2013-10-16,62,57,52,59,50,45,92,79,59,29.70,29.58,5,1,5,0.00
2013-10-17,52,50,46,48,45,41,90,85,78,29.69,29.52,3,0,3,0.06
2013-10-18,62,51,41,50,44,38,92,78,55,29.69,29.61,4,0,4,0.01
2013-10-19,48,44,40,45,40,36,91,85,77,29.68,29.52,4,0,4,0.10
2013-10-20,58,48,38,46,41,35,91,77,58,29.69,29.57,4,1,4,0.02
2013-10-21,54,50,41,47,43,35,86,77,69,29.64,29.57,5,1,5,0.01
2013-10-22,49,42,33,36,32,28,81,68,52,29.69,29.61,6,1,6,0.00
2013-10-23,47,40,34,36,31,27,87,72,48,29.70,29.55,4,0,4,0.00
2013-10-24,46,39,33,34,30,28,86,73,51,29.96,29.68,3,1,3,0.00
2013-10-25,49,39,33,36,31,28,88,73,53,30.12,29.90,6,1,6,0.00
2013-10-26,49,43,37,40,32,28,85,67,57,29.90,29.56,8,2,8,0.06
2013-10-27,52,40,33,40,33,28,87,75,52,29.84,29.75,5,0,5,0.00
2013-10-28,51,41,32,42,34,26,87,75,68,30.18,29.80,5,1,5,0.00
2013-10-29,52,44,38,40,36,31,77,71,65,30.23,30.02,4,1,4,0.00
2013-10-30,64,49,36,49,40,31,90,73,53,30.02,29.74,6,1,6,0.07
2013-10-31,61,59,53,60,57,49,96,94,88,29.75,28.93,7,2,7,0.66
2013-11-1,45,45,45,42,42,41,88,87,87,29.43,29.41,1,0,1,0.00
2013-11-2,47,45,38,43,41,34,93,87,78,29.87,29.39,5,1,5,0.11
2013-11-3,46,39,34,38,33,30,89,81,68,30.23,29.87,5,1,5,0.00
2013-11-4,49,40,33,36,33,30,87,74,52,30.26,30.09,6,1,6,0.00
2013-11-5,53,47,39,48,42,33,87,83,78,30.16,29.96,3,0,3,0.00
2013-11-6,55,51,43,52,46,39,90,83,71,29.96,29.56,8,2,8,0.07
2013-11-7,45,40,35,39,32,27,88,72,53,29.92,29.75,7,1,7,0.03
2013-11-8,46,37,33,31,29,26,85,73,53,30.07,29.89,4,0,4,0.00
2013-11-9,57,47,36,42,36,29,79,66,54,29.95,29.57,8,2,8,0.00
2013-11-10,49,43,34,39,31,25,74,62,54,30.07,29.67,10,2,10,0.00
2013-11-11,44,37,29,38,31,22,87,79,73,30.10,29.80,7,2,7,0.15
2013-11-12,35,29,24,24,20,17,81,70,55,30.34,30.09,8,2,8,0.01
2013-11-13,42,30,20,26,19,13,82,64,38,30.33,29.93,8,2,8,0.00
2013-11-14,50,39,29,29,24,19,69,56,40,29.94,29.76,8,2,8,0.00
2013-11-15,50,42,36,32,28,24,67,58,48,29.85,29.77,7,1,7,0.00
2013-11-16,57,46,33,52,40,26,87,79,66,29.88,29.57,10,2,10,0.00
2013-11-17,62,58,56,59,55,49,94,90,75,29.57,28.99,14,3,14,0.49
2013-11-18,37,35,35,28,26,25,71,68,66,29.91,29.71,13,4,13,0.00
2013-11-19,43,35,28,27,24,21,76,64,50,30.19,29.90,7,1,7,0.00
2013-11-20,45,35,25,33,26,19,85,70,52,30.22,30.01,7,1,7,0.00
2013-11-21,46,43,39,42,37,29,93,81,65,30.07,29.94,5,1,6,0.29
2013-11-22,45,40,29,44,36,24,93,86,73,30.15,29.90,7,1,7,0.06
2013-11-23,30,25,18,24,17,9,86,72,51,30.31,30.04,10,2,10,0.00
2013-11-24,28,20,15,13,11,8,77,68,51,30.39,30.19,8,2,8,0.00
2013-11-25,31,26,19,24,17,11,81,69,57,30.19,29.84,8,2,8,0.00
2013-11-26,35,32,29,28,26,24,86,81,76,29.86,29.68,8,1,8,0.01
2013-11-27,30,25,19,24,16,11,83,68,55,29.95,29.64,11,2,11,0.00
2013-11-28,28,24,18,22,16,10,83,73,63,30.19,29.95,5,1,5,0.00
2013-11-29,35,26,17,25,18,11,84,73,56,30.44,30.19,3,0,3,0.00
2013-11-30,45,33,28,30,24,21,79,70,54,30.33,29.87,6,2,6,0.00
2013-12-1,46,34,26,37,28,21,84,78,67,29.87,29.73,4,0,4,0.00
2013-12-2,41,34,27,30,27,20,85,75,60,29.76,29.63,5,0,5,0.00
2013-12-3,38,34,27,35,30,20,90,85,75,29.65,29.58,5,1,5,0.06
2013-12-4,57,46,37,53,43,34,93,89,86,29.65,29.37,8,1,8,0.00
2013-12-5,57,43,31,54,36,23,89,75,65,29.92,29.35,9,2,9,0.00
2013-12-6,31,27,22,23,18,14,73,69,64,30.17,29.88,8,2,8,0.00
2013-12-7,27,20,15,14,11,7,79,67,55,30.41,30.17,7,1,7,0.00
2013-12-8,29,21,13,26,15,7,90,78,70,30.38,29.72,8,2,8,0.00
2013-12-9,30,26,19,27,21,12,91,80,71,29.88,29.60,7,2,7,0.00
2013-12-10,23,18,11,14,10,4,77,69,51,29.94,29.70,6,2,8,0.00
2013-12-11,26,18,8,19,11,1,82,75,67,30.24,29.93,7,1,7,0.00
2013-12-12,21,13,4,14,5,-3,81,70,51,30.22,29.93,8,1,8,0.00
2013-12-13,30,25,21,23,18,14,78,76,72,30.04,29.88,8,1,8,0.00
2013-12-14,25,21,19,18,16,15,86,83,75,30.01,29.54,10,3,11,0.04
2013-12-15,26,21,16,22,16,10,87,80,69,29.78,29.53,10,2,10,0.05
2013-12-16,26,14,2,18,8,-4,82,76,62,29.92,29.73,3,0,3,0.00
2013-12-17,27,22,15,22,18,10,87,83,79,29.76,29.61,9,1,9,0.00
2013-12-18,33,26,21,24,20,15,88,78,66,29.86,29.63,6,1,8,0.01
2013-12-19,41,29,20,33,24,14,85,80,72,29.74,29.58,3,0,3,0.06
2013-12-20,41,37,34,39,34,31,94,91,85,29.64,29.45,2,0,2,0.34
2013-12-21,37,34,33,35,32,31,94,93,92,29.61,29.35,8,2,8,0.77
2013-12-22,38,35,33,35,32,31,95,91,87,29.71,29.23,6,2,7,0.29
2013-12-23,34,29,20,31,24,13,91,81,69,30.08,29.71,6,2,6,0.00
2013-12-24,22,17,12,13,10,6,81,73,61,30.33,30.06,7,1,7,0.00
2013-12-25,25,20,10,22,16,5,88,82,76,30.27,29.86,8,2,8,0.00
2013-12-26,29,26,24,24,21,18,90,81,70,30.06,29.76,8,2,8,0.00
2013-12-27,40,33,26,32,28,21,86,81,71,30.07,29.84,6,1,6,0.05
2013-12-28,47,39,32,37,32,27,85,77,66,29.90,29.66,7,2,7,0.00
2013-12-29,44,35,24,34,28,17,87,78,66,29.76,29.43,8,2,8,0.00
2013-12-30,23,21,17,17,11,7,77,67,62,30.03,29.76,8,1,8,0.00
2013-12-31,21,18,15,15,11,9,81,76,65,30.10,29.78,6,1,6,0.00
2014-1-1,17,15,14,12,10,9,84,80,77,30.15,29.95,8,2,8,0.03
2014-1-2,17,13,4,12,8,-3,84,79,71,30.03,29.80,11,4,11,0.00